Regional Weather Roundup
Issued by NWS

Home | Current Version | Previous Version | Graphics & Text | Print | Product List | Glossary On
Versions: 1 2 3 4 5 6 7 8 9 10 11 12 13 14 15 16 17 18 19 20 21 22 23 24 25 26 27 28 29 30 31 32 33 34 35 36 37 38 39 40 41 42 43 44 45 46 47 48 49 50
775
ASUS44 KJAN 240303
RWRMS

MISSISSIPPI HOURLY WEATHER ROUNDUP
NATIONAL WEATHER SERVICE JACKSON MS
1000 PM CDT WED JUL 23 2014

NOTE: "FAIR: INDICATES FEW OR NO CLOUDS BELOW 12,000 FEET WITH NO
SIGNIFICANT WEATHER AND/OR OBSTRUCTIONS TO VISIBILITY.

MSZ001>002-007>008-010>013-018>021-025>028-034>036-240400-
NORTHWEST MISSISSIPPI

CITY           SKY/WX    TMP DP  RH WIND       PRES   REMARKS
CLARKSDALE     FAIR      72  72 100 N3        30.00R
CLEVELAND      FAIR      73  72  99 CALM      29.94F
GREENWOOD      CLOUDY    72  70  93 CALM      29.98R
GREENVILLE     CLOUDY    76  73  91 NW9       29.95F
GRENADA        FAIR      72  70  94 NE3       30.00R
OLIVE BRANCH   CLEAR     72 N/A N/A N5        30.04R
OXFORD         MOCLDY    72  72 100 CALM      30.04R
TUNICA         CLOUDY    73  72  94 N7        30.03R
$$

MSZ003>006-009-014>017-022>024-029>033-037>039-240400-
NORTHEAST MISSISSIPPI

CITY           SKY/WX    TMP DP  RH WIND       PRES   REMARKS
BELMONT        FAIR      72  71  96 SE3       30.03R
COLUMBUS AFB   CLOUDY    73  70  91 SW5       30.01R
CORINTH        FAIR      73  70  88 NW3       30.02R
GOLDN TRIANGLE CLOUDY    73  68  83 CALM      30.01S
STARKVILLE     FAIR      73  70  88 CALM      30.01S
TUPELO         MOCLDY    75  68  78 N7        30.01R
$$

MSZ040-058-240400-
CENTRAL MISSISSIPPI

CITY           SKY/WX    TMP DP  RH WIND       PRES   REMARKS
JACKSON INTL   MOCLDY    76  71  85 E7        30.01F
JACKSON HAWKNS CLOUDY    74  68  81 CALM      30.00F
MERIDIAN KEY   PTCLDY    75  71  87 CALM      30.01S
MERIDIAN NAS   CLOUDY    75  70  84 S7        29.99F
RAYMOND        FAIR      73  68  83 CALM      30.00F
VICKSBURG      CLOUDY    79  74  84 NW6       29.99F
$$

MSZ059>079-240400-
SOUTH MISSISSIPPI

CITY           SKY/WX    TMP DP  RH WIND       PRES   REMARKS
BROOKHAVEN     FAIR      77  75  94 CALM      30.03F
COLUMBIA       FAIR      75  75 100 CALM      30.01S FOG
HATTIESBURG    PTCLDY    78  75  90 CALM      30.02S FOG
MCCOMB         MOCLDY    78  72  81 CALM      30.03R
NATCHEZ        MOCLDY    77  73  88 NW9       30.03R
PINE BELT      CLEAR     73  72  94 CALM      30.03S
$$

MSZ080>082-240400-
COASTAL MISSISSIPPI

CITY           SKY/WX    TMP DP  RH WIND       PRES   REMARKS
BILOXI         PTCLDY    78  72  82 CALM      30.02S
PASCAGOULA     CLEAR     73  72  96 CALM      30.03R
GULFPORT       CLEAR     79  72  79 CALM      30.02R
$$



USA.gov is the U.S. government's official web portal to all federal, state and local government web resources and services.